User: anonymous   Login
Location: Cañada de la Miga
(34.7595°N, 106.2317°W)
Time: 03:44:46
(UTC+00:00)
Language:

Transit 2A Rocket - Orbit

View from above orbital plane
View from above orbital plane
View from above satellite
View from above satellite

Ground track
Ground track

The orbit data is extracted from the following two-line orbital elements,

1    47U 60007C   21331.67222045 -.00000006  00000-0  23743-4 0  9992
2    47  66.6642 182.5144 0234650 276.5890  80.8555 14.42197222211284
Epoch (UTC): 27 November 2021 16:07:59
Eccentricity: 0.0234650
inclination: 66.6642°
perigee height: 584 km
apogee height: 918 km
right ascension of ascending node: 182.5144°
argument of perigee: 276.5890°
revolutions per day: 14.42197222
mean anomaly at epoch: 80.8555°
orbit number at epoch: 21128

The dashed part of the orbit path shows where the satellite is in the earth's shadow,  

DLR